Wind_Speed
55 55 56 58 60 60 59 59 59 60 61 61 60 61 61 61 62 62 61 62 64 65 67 69 70 71 71 71 73 71 71 70 67 63 62 61 59 59 58 59 60 61 58
55 55 55 56 57 57 57 58 58 60 60 59 59 60 61 63 64 64 65 65 66 66 67 67 67 70 70 73 72 71 69 67 66 63 64 62 61 60 60 59 60 59 65
53 53 54 55 56 57 58 59 60 60 59 58 59 60 60 60 61 63 64 65 66 67 68 69 71 73 74 74 73 73 71 68 66 65 65 63 62 60 59 59 58 59 59
54 56 59 61 62 63 63 64 65 65 66 66 67 67 67 66 66 67 67 68 69 71 73 74 74 76 76 76 75 72 72 71 70 69 66 64 62 61 61 59 58 59 60
62 63 64 65 66 67 68 69 70 72 74 75 75 75 75 75 75 76 76 76 76 76 78 78 76 75 76 77 78 76 75 71 71 69 67 65 63 61 60 60 60 62 62
68 66 67 68 70 71 72 75 77 78 78 78 77 77 77 77 76 76 77 77 78 79 80 81 83 82 82 81 82 81 77 73 70 69 67 65 64 65 65 66 66 65 67
74 76 78 78 78 79 80 80 80 80 79 78 78 78 76 74 74 75 75 76 77 78 76 73 75 78 80 79 76 78 80 78 78 74 73 72 70 70 69 68 68 69 70
81 83 82 80 79 78 78 79 79 79 79 76 74 74 74 73 72 71 71 71 70 67 70 71 70 69 70 73 73 74 74 73 72 72 70 69 64 65 63 66 74 72 74
85 85 86 86 85 83 83 81 79 79 78 77 76 75 73 72 72 73 75 74 73 73 75 75 74 73 70 69 67 65 63 66 67 66 67 67 65 68 68 72 73 68 70
85 85 85 86 88 88 89 89 87 84 81 78 76 76 76 74 73 72 75 77 78 75 73 76 75 74 73 71 69 68 66 67 65 68 72 64 63 70 61 55 57 59 55
85 85 86 87 88 89 89 89 88 89 89 87 85 83 82 80 80 79 76 76 74 74 71 72 74 72 70 73 72 72 68 67 65 67 67 63 63 63 58 59 62 59 60
84 86 88 89 90 91 91 89 88 86 84 82 80 79 79 79 79 77 76 74 78 76 71 74 77 81 67 67 65 65 70 66 71 67 62 56 61 57 53 56 58 59 62
89 90 90 90 88 86 85 84 83 82 80 78 75 73 71 70 69 71 72 71 76 80 77 72 71 65 65 62 63 65 61 58 52 48 49 51 55 56 56 55 60 62 63
88 87 86 85 84 83 81 78 77 75 73 71 70 69 67 67 66 64 63 65 65 67 69 67 60 58 60 60 57 56 63 58 51 51 53 52 54 56 56 59 64 66 60
81 80 80 79 78 77 76 76 74 73 72 69 67 65 62 60 58 57 56 55 54 59 61 53 56 60 59 59 60 59 58 54 53 53 54 55 58 59 56 55 55 54 52
77 76 76 76 77 76 74 71 69 67 63 61 59 57 55 53 49 47 48 51 52 54 55 57 56 52 49 51 52 49 50 50 50 51 53 54 55 52 53 53 52 50 49
76 75 74 73 72 71 68 67 63 61 59 57 55 53 48 46 43 41 42 42 46 51 54 50 50 56 52 47 44 42 45 45 45 42 45 46 47 49 49 48 45 46 48
73 71 69 68 66 65 63 61 59 57 55 54 54 52 49 48 47 46 43 42 41 40 41 45 44 37 32 33 34 34 35 41 41 42 42 42 43 44 43 44 46 49 52
68 66 65 63 62 60 58 57 55 54 52 51 50 48 48 47 46 44 41 40 40 39 37 36 32 33 33 33 34 36 38 40 41 40 42 42 42 45 48 50 50 51 53
64 63 62 61 60 58 57 54 51 49 49 48 46 42 39 35 34 37 38 38 39 39 33 29 29 30 32 33 34 33 34 36 38 39 42 46 47 49 51 53 53 55 57
59 59 58 57 54 53 51 47 45 45 42 42 43 38 36 37 37 37 36 33 29 26 25 26 27 28 29 31 32 33 36 40 41 45 46 48 50 52 53 55 58 61 63
53 52 51 47 46 46 44 45 42 37 38 39 34 32 33 32 27 24 22 21 21 22 24 25 26 29 32 34 36 37 39 42 44 46 49 51 54 56 59 62 65 68 71
49 48 48 46 44 40 35 33 32 32 33 30 27 26 25 24 23 22 21 23 25 27 30 32 34 35 36 38 40 42 45 48 51 53 56 58 61 64 67 70 73 76 79
48 49 48 44 36 29 25 23 29 31 29 29 26 25 25 24 22 24 27 29 31 33 36 37 37 38 40 42 45 48 51 53 56 59 62 65 68 70 74 78 80 80 80
46 44 40 30 24 22 23 28 30 29 29 28 27 27 26 26 27 30 32 33 35 36 37 39 40 42 44 47 51 54 58 61 63 65 69 73 75 74 73 72 66 61 62
38 28 25 21 21 23 27 28 29 30 30 29 27 28 31 32 32 34 36 37 40 42 43 45 46 48 51 55 57 59 62 67 71 71 70 67 63 62 62 62 61 60 59
Wind_Direction
269 271 271 271 274 276 276 277 277 277 280 280 279 278 279 279 279 280 279 278 279 277 278 280 282 285 288 290 292 293 293 292 292 292 290 289 287 287 286 285 282 285 277
276 276 276 277 277 277 277 278 278 280 280 281 282 282 282 282 281 280 279 278 278 280 281 282 284 285 287 290 291 291 291 290 290 289 287 287 286 286 286 286 286 284 282
274 274 275 277 279 281 283 283 283 284 284 284 284 284 283 283 283 283 282 280 281 281 281 282 284 285 286 287 287 288 288 287 287 287 286 286 285 284 285 284 283 284 284
277 279 281 282 281 281 280 280 280 281 281 282 281 281 281 281 281 281 280 280 280 280 281 282 282 283 285 285 285 285 285 285 285 285 284 285 285 285 285 284 282 281 279
281 282 283 282 282 281 281 282 282 283 283 283 281 281 280 279 278 278 278 278 278 278 279 279 279 281 282 283 283 283 284 283 282 281 282 283 282 282 282 282 281 280 278
283 283 285 285 285 284 283 283 283 283 283 284 284 284 283 283 281 280 278 277 275 275 275 275 275 276 276 277 278 279 280 281 281 282 283 284 285 284 283 281 281 284 276
283 286 288 289 289 289 290 291 292 292 293 292 291 290 287 284 281 279 278 277 276 277 276 275 275 276 275 275 279 281 281 281 281 281 282 282 283 287 285 286 278 275 277
287 289 290 291 291 291 291 291 291 291 291 290 289 288 288 286 284 282 279 278 278 276 281 282 280 278 276 276 276 279 281 279 278 278 277 277 276 277 281 280 280 277 278
289 289 290 289 289 289 289 289 289 290 290 290 289 287 285 283 281 278 277 277 277 279 281 279 278 278 278 279 277 279 281 284 282 282 284 284 284 278 280 282 277 272 277
288 288 289 290 290 290 290 290 291 290 288 286 285 284 283 281 280 277 278 276 276 277 277 278 279 277 277 277 278 277 276 276 276 277 277 277 280 277 278 278 278 280 281
289 290 290 290 290 290 290 290 289 289 289 288 286 283 281 280 278 279 278 274 273 277 274 277 278 278 280 278 277 275 279 277 279 281 281 278 279 277 283 285 285 288 286
288 289 289 290 290 290 290 290 290 289 288 287 286 285 283 280 278 278 276 271 270 274 271 275 277 278 282 279 277 277 279 281 279 275 277 280 276 280 285 288 291 290 287
288 289 290 291 291 291 290 290 290 290 289 288 287 286 285 285 282 279 278 275 269 270 276 275 277 280 281 279 280 277 281 283 274 281 284 273 277 284 288 288 286 284 284
288 289 290 290 290 290 290 291 292 292 292 291 289 288 286 284 284 283 281 279 277 273 271 275 277 275 274 273 277 276 279 277 274 279 282 284 285 285 285 283 283 283 285
290 290 290 290 290 291 292 293 293 292 291 290 290 290 289 289 287 285 283 280 278 276 276 274 275 276 275 277 277 278 271 269 273 278 280 282 283 285 285 283 283 283 285
289 289 290 291 292 293 293 292 292 292 292 293 293 293 293 292 291 288 283 277 274 274 274 269 275 274 274 276 276 272 273 278 278 277 278 281 282 282 281 281 282 282 284
289 289 290 291 291 291 291 291 291 292 292 292 292 290 288 287 287 288 289 286 281 278 276 276 275 274 274 275 270 272 275 275 277 278 279 281 286 289 285 282 280 280 280
288 288 288 288 289 289 289 290 291 292 292 292 291 289 284 280 281 286 289 287 285 282 281 280 278 279 279 279 277 280 283 283 287 288 289 287 285 280 276 275 277 281 284
285 286 287 287 287 287 288 288 289 290 291 292 291 290 288 288 286 288 290 294 294 291 289 284 280 279 282 284 285 286 286 286 282 281 279 276 274 284 288 290 290 292 293
285 285 285 285 286 286 285 285 286 285 287 290 293 289 288 288 288 287 287 285 284 281 278 279 283 288 288 287 284 283 284 282 279 278 280 285 288 289 290 291 292 293 294
285 285 285 285 285 285 283 281 283 285 285 294 293 284 283 281 280 281 282 278 278 278 282 286 285 285 286 285 285 284 285 287 287 288 288 289 290 290 291 292 293 293 293
286 286 286 286 284 285 281 280 283 282 290 294 289 285 282 280 278 278 279 282 285 289 292 292 291 292 292 293 290 289 288 289 290 290 291 291 292 292 292 292 292 292 294
285 286 287 288 286 283 281 276 277 281 287 289 285 283 282 278 277 279 285 288 292 295 295 295 292 292 292 293 293 293 294 294 294 293 293 292 292 292 292 292 293 294 294
284 285 286 286 282 278 273 275 282 278 281 283 281 281 277 275 280 286 289 292 295 295 293 292 292 292 292 294 295 293 293 292 292 292 292 293 293 293 292 292 293 293 290
282 281 281 270 260 255 261 272 275 274 275 279 277 275 272 276 283 290 292 291 291 292 291 292 292 293 294 293 292 292 293 295 296 295 294 295 296 295 292 292 295 294 293
279 270 257 252 262 270 275 277 277 275 276 273 270 269 271 276 286 290 288 289 290 290 291 292 294 294 294 294 294 296 296 298 300 300 298 297 297 297 296 297 297 296 295
Height
5762 5760 5758 5757 5755 5753 5750 5748 5746 5743 5740 5737 5734 5732 5730 5727 5723 5720 5718 5715 5712 5708 5705 5700 5696 5691 5687 5682 5677 5673 5667 5661 5658 5660 5655 5652 5648 5645 5642 5640 5636 5632 5629
5747 5745 5744 5742 5740 5739 5737 5734 5731 5729 5725 5723 5719 5717 5714 5711 5708 5704 5702 5699 5695 5692 5687 5683 5679 5673 5671 5665 5659 5656 5651 5646 5642 5642 5638 5637 5633 5628 5625 5622 5619 5616 5613
5734 5732 5730 5727 5726 5723 5721 5718 5715 5713 5710 5707 5704 5702 5699 5696 5692 5689 5686 5683 5680 5676 5672 5669 5664 5658 5654 5649 5643 5639 5635 5630 5627 5623 5620 5619 5617 5613 5609 5606 5602 5599 5596
5719 5717 5715 5713 5711 5709 5706 5704 5701 5698 5695 5692 5688 5686 5682 5679 5676 5673 5669 5666 5663 5660 5656 5652 5647 5643 5638 5633 5627 5622 5618 5615 5611 5607 5603 5602 5599 5597 5593 5590 5586 5582 5578
5704 5702 5700 5697 5695 5692 5689 5686 5683 5680 5677 5675 5672 5668 5665 5662 5658 5654 5651 5648 5645 5642 5638 5634 5629 5624 5620 5615 5610 5606 5602 5596 5593 5589 5586 5584 5581 5578 5576 5573 5568 5565 5561
5686 5684 5682 5680 5676 5673 5670 5668 5665 5662 5658 5654 5650 5647 5643 5638 5633 5630 5626 5624 5621 5618 5616 5612 5608 5603 5599 5594 5591 5586 5584 5578 5575 5571 5569 5568 5565 5561 5556 5554 5549 5545 5541
5669 5665 5663 5660 5657 5653 5649 5645 5641 5637 5634 5630 5626 5623 5620 5614 5609 5606 5602 5599 5597 5594 5591 5588 5584 5581 5576 5572 5569 5566 5563 5560 5556 5553 5551 5549 5545 5542 5537 5534 5530 5525 5522
5648 5645 5641 5639 5636 5632 5628 5624 5620 5617 5613 5609 5604 5599 5596 5591 5587 5584 5581 5578 5575 5572 5568 5565 5562 5560 5556 5552 5548 5545 5542 5540 5536 5533 5531 5529 5526 5523 5516 5515 5513 5508 5503
5626 5622 5619 5617 5616 5612 5609 5605 5601 5597 5592 5587 5582 5579 5575 5571 5566 5563 5559 5557 5554 5551 5547 5543 5540 5538 5535 5531 5529 5527 5524 5520 5518 5514 5512 5510 5507 5503 5499 5496 5492 5486 5483
5606 5601 5597 5593 5590 5587 5583 5579 5576 5572 5571 5567 5563 5557 5552 5549 5544 5541 5537 5535 5533 5528 5525 5523 5520 5518 5515 5513 5511 5508 5505 5502 5499 5496 5494 5492 5490 5486 5480 5475 5473 5470 5466
5586 5581 5576 5572 5568 5564 5562 5557 5553 5548 5544 5540 5537 5533 5528 5525 5522 5518 5515 5512 5509 5507 5505 5503 5501 5499 5496 5493 5491 5488 5486 5484 5480 5477 5475 5473 5471 5467 5463 5458 5456 5451 5448
5566 5561 5556 5551 5546 5540 5537 5534 5528 5523 5518 5514 5510 5506 5502 5499 5497 5493 5491 5489 5487 5485 5484 5483 5480 5478 5475 5472 5470 5469 5468 5466 5462 5460 5458 5455 5453 5449 5446 5442 5439 5435 5433
5546 5540 5534 5529 5522 5517 5513 5509 5505 5498 5493 5489 5486 5483 5479 5474 5472 5469 5466 5464 5464 5463 5462 5462 5460 5459 5457 5454 5452 5452 5449 5447 5445 5442 5440 5437 5435 5433 5430 5428 5425 5420 5417
5523 5517 5512 5507 5501 5494 5489 5484 5480 5476 5472 5467 5463 5460 5457 5454 5451 5448 5444 5442 5441 5441 5441 5441 5440 5439 5437 5435 5435 5434 5432 5431 5429 5426 5424 5421 5420 5417 5415 5412 5408 5404 5400
5500 5494 5488 5483 5478 5474 5468 5463 5460 5454 5450 5446 5442 5439 5437 5433 5431 5428 5425 5423 5421 5420 5421 5420 5420 5419 5418 5418 5417 5416 5415 5413 5411 5409 5407 5405 5403 5400 5398 5395 5391 5387 5384
5478 5473 5468 5463 5457 5453 5449 5444 5439 5436 5432 5428 5426 5423 5419 5416 5414 5411 5408 5405 5404 5403 5402 5403 5402 5401 5400 5400 5400 5398 5398 5396 5393 5391 5389 5387 5385 5382 5380 5377 5374 5371 5369
5455 5451 5447 5442 5438 5434 5430 5426 5423 5419 5415 5412 5410 5407 5405 5403 5400 5398 5396 5393 5390 5388 5387 5386 5386 5385 5385 5385 5384 5382 5381 5379 5377 5374 5372 5370 5368 5367 5365 5364 5361 5359 5357
5433 5430 5427 5424 5421 5417 5414 5410 5407 5403 5400 5397 5394 5392 5389 5388 5386 5384 5382 5380 5378 5376 5374 5373 5372 5372 5371 5369 5368 5367 5365 5365 5362 5361 5359 5357 5355 5355 5353 5352 5349 5346 5343
5416 5412 5409 5406 5403 5400 5398 5394 5391 5388 5385 5382 5379 5377 5374 5373 5371 5370 5368 5366 5364 5363 5363 5362 5360 5360 5359 5358 5356 5355 5354 5352 5351 5349 5347 5347 5346 5343 5341 5338 5335 5331 5328
5397 5394 5392 5389 5386 5383 5381 5378 5376 5374 5372 5369 5366 5363 5361 5360 5359 5358 5357 5356 5354 5353 5351 5350 5349 5348 5348 5347 5346 5345 5344 5342 5341 5339 5338 5336 5333 5330 5327 5324 5320 5316 5311
5380 5376 5373 5371 5369 5366 5364 5363 5362 5360 5359 5357 5353 5351 5350 5349 5348 5346 5345 5344 5343 5342 5341 5340 5340 5339 5338 5337 5336 5335 5333 5331 5329 5327 5325 5321 5318 5315 5312 5308 5304 5299 5295
5363 5360 5357 5355 5353 5351 5350 5350 5350 5349 5348 5345 5342 5341 5340 5339 5337 5336 5335 5335 5334 5333 5332 5332 5331 5330 5329 5327 5325 5323 5321 5319 5316 5313 5310 5307 5303 5299 5295 5290 5286 5281 5275
5347 5345 5342 5341 5339 5338 5337 5338 5339 5338 5337 5335 5333 5332 5331 5330 5329 5328 5327 5326 5325 5325 5324 5323 5322 5320 5318 5316 5314 5311 5309 5306 5302 5299 5295 5291 5286 5281 5276 5271 5266 5260 5254
5333 5331 5329 5328 5327 5327 5327 5328 5329 5328 5327 5326 5324 5323 5322 5321 5321 5320 5319 5318 5317 5316 5315 5314 5311 5309 5307 5304 5301 5298 5295 5292 5288 5283 5278 5273 5267 5261 5255 5249 5243 5235 5228
5319 5318 5317 5316 5317 5317 5318 5319 5318 5317 5317 5316 5315 5314 5314 5313 5312 5311 5310 5309 5308 5306 5304 5302 5299 5297 5294 5291 5287 5284 5280 5275 5270 5264 5258 5251 5244 5237 5230 5223 5216 5210 5205
5307 5307 5307 5308 5308 5309 5309 5309 5308 5307 5307 5306 5305 5304 5304 5303 5302 5301 5300 5298 5296 5294 5292 5289 5286 5283 5280 5276 5271 5266 5261 5255 5249 5241 5234 5227 5221 5215 5209 5202 5196 5190 5185